Find Raduga

NORAD ID: 10987 Int'l Des: 1978-073 Owner: GUKOSR Country: SU operational
HEOCIRCULARGSO

Live-Position

3D-Globus wird geladen...

Über Raduga

Beschreibung wird geladen...

Nächste Überflüge

Passes for default location (London). Set your location on the main map for personalized predictions.

Höhenverlauf

Loading altitude history...

Zweizeiliger Elementsatz

1 10987U 78073A 26121.50523750 -.00000305 00000-0 00000+0 0 9997
2 10987 4.9050 279.1691 0011380 36.7939 186.8783 1.00220517119134
Epoch: 1. Mai 2026 • Age: 6 hours

Aktueller Status

Höhe 35796.9 km
Geschwindigkeit 3.07 km/s
Subsatellitenpunkt -3.66°S, 101.44°E
Startdatum 18. Juli 1978
Alter 47.7 years
Typ other

Technische Details

Klassifizierung Payload
Masse 1965.00 kg
Trockenmasse 1800.00 kg
Gesamtmasse 1965.00 kg
Länge 5.50 m
Durchmesser 2.50 m
Spannweite 9.50 m
Form Step Cyl + 2 Pan
Hersteller NPOPM
Bus-Typ Raduga
Phasenstatus In Orbit
Besitzer/Staat GUKOSR/SU

Most Searched